Regional Weather Roundup
Issued by NWS Midland/Odessa, TX

Skip options and go directly to product.
Home | Oldest Version | Previous Version | Current Version | All | Graphics & Text | Save Text | Print | Product List | Glossary On

Skip product version selection by date and time.   
692
ASUS44 KMAF 310910
RWRMAF
MIDLAND AREA WEATHER ROUNDUP
NATIONAL WEATHER SERVICE MIDLAND TX
400 AM CDT THU JUL 31 2014

...IN SOUTHWEST TEXAS AND SOUTHEAST NEW MEXICO...

CITY           SKY/WX    TMP DP  RH WIND       PRES   REMARKS
ALPINE         CLOUDY    71  59  66 SW3       30.19S
ANDREWS        FAIR      69  62  77 NE18G28   30.13R
ARTESIA        CLOUDY    68  63  83 N15       30.22R
BIG SPRING     CLOUDY    74  64  69 N14G22    30.12R
CARLSBAD       HVY RAIN  67  65  93 NW7         N/A  FOG
DRYDEN           N/A     87  52  29 E10       29.95S
FORT STOCKTON  CLOUDY    77  60  55 NW5       30.06S
GUAD PASS      CLOUDY    65  60  84 NE28      30.26R
HOBBS          MOCLDY    66  59  77 N21       30.17S
MARFA          MOCLDY    68  57  68 NW9       30.19F
MIDLAND AIRPK  CLOUDY    72  65  79 NE10      30.10S
MIDLAND INTL   CLOUDY    72  65  78 NE15      30.09R
ODESSA           N/A     72  64  76 NE16G23   30.10S
PECOS          MOCLDY    74  63  68 N12       30.07R
PRESIDIO       CLOUDY    82  59  45 CALM      30.03F
SEMINOLE       CLOUDY    69  60  74 NE14G20   30.15S
SNYDER         CLOUDY    70  64  81 N12G22    30.09R
WINK           MOCLDY    74  63  68 NE15      30.08R
$$
...OTHER STATIONS IN TEXAS...

CITY           SKY/WX    TMP DP  RH WIND       PRES   REMARKS
ABILENE        CLOUDY    71  66  84 N12       30.04S
AMARILLO       CLOUDY    60  58  92 N12       30.22S
AUSTIN         CLOUDY    78  72  81 S9        29.95F
BROWNSVILLE    PTCLDY    80  77  90 S8        29.94S
CORPUS CHRISTI PTCLDY    80  76  87 S14       29.93F
DALLAS FTW     CLOUDY    76  70  82 NE7       29.95R
DEL RIO        PTCLDY    83  71  67 SE12      29.92S
EL PASO        CLOUDY    76  63  64 N13       30.13F
HOUSTON INT    PTCLDY    79  74  84 S3        29.94F
LUBBOCK        CLOUDY    66  58  75 N16G22    30.17R
SAN ANGELO     CLOUDY    79  68  69 NE12      30.01R
SAN ANTONIO    CLOUDY    80  73  79 S14       29.96F
WACO           MOCLDY    79  67  66 S18G24    29.93R
WICHITA FALLS  NOT AVBL
$$
...OTHER LOCATIONS IN NEW MEXICO...

CITY           SKY/WX    TMP DP  RH WIND       PRES   REMARKS
ALAMAGORDO     CLOUDY    66  64  94 NE10      30.20F
ALBUQUERQUE    LGT RAIN  63  59  87 SE16G26   30.25F
CANNON AFB     CLOUDY    63  63 100 NE10      30.25S
CLOVIS         NOT AVBL
HOLLOMAN AFB   MOCLDY    68  68 100 NE6       30.19R
ROSWELL        CLOUDY    68  60  75 NE10      30.23R
RUIDOSO        NOT AVBL
SANTA FE       LGT RAIN  61  55  81 S16       30.36R
TRUTH OR CONSE CLOUDY    70  62  76 N9        30.21F
TUCUMCARI      PTCLDY    63  57  81 E5        30.25S
$$

USA.gov is the U.S. government's official web portal to all federal, state and local government web resources and services.